Regional Weather Roundup
Issued by NWS

Home | Current Version | Previous Version | Text Only | Print | Product List | Glossary On
Versions: 1 2 3 4 5 6 7 8 9 10 11 12 13 14 15 16 17 18 19 20 21 22 23 24 25 26 27
000
ASUS45 KBOU 091707
RWRCO

WEATHER ROUNDUP FOR COLORADO
NATIONAL WEATHER SERVICE DENVER/BOULDER CO
1000 AM MST FRI DEC 09 2016

NOTE: "FAIR" INDICATES FEW OR NO CLOUDS BELOW 12000 FEET WITH NO
SIGNIFICANT WEATHER AND/OR OBSTRUCTIONS TO VISIBILITY.

COZ001>005-013-030-031-091800-
...NORTHWEST COLORADO...

CITY           SKY/WX    TMP DP  RH WIND       PRES   REMARKS
CRAIG          CLOUDY    31  22  69 E3        30.24R
HAYDEN         NOT AVBL
MEEKER         CLOUDY    36  22  56 CALM      30.26R
MOUNT WERNER   NOT AVBL
STEAMBOAT SPGS CLOUDY    21  18  86 CALM      30.24R
WALDEN           N/A     32  21  64 W21G29    30.17R WCI  20
$$

COZ006>008-011-091800-
...WEST CENTRAL VALLEYS...

CITY           SKY/WX    TMP DP  RH WIND       PRES   REMARKS
GRAND JUNCTION CLOUDY    29  15  56 CALM      30.35R
MONTROSE       CLOUDY    33  19  56 NW5       30.33R WCI  29
EAGLE          CLOUDY    30  27  86 E6        30.30R WCI  24
RIFLE          CLOUDY    28  16  60 CALM      30.33S
DELTA          NOT AVBL
NUCLA          FAIR      34  19  55 CALM      30.36S
$$

COZ017>023-064>068-091800-
...SOUTHWEST COLORADO...

CITY           SKY/WX    TMP DP  RH WIND       PRES   REMARKS
DURANGO        FAIR      33  16  49 E5        30.34S WCI  29
CORTEZ         FAIR      37  23  56 S3        30.36R
PAGOSA SPRINGS FAIR      31  15  52 CALM      30.35R
TELLURIDE      CLOUDY    32  26  77 E3        30.36R
WOLF CREEK PAS FAIR      18  18 100 SW9       30.37R WCI   6
$$

COZ009-010-012-014-032>034-037-058>063-091800-
...CENTRAL COLORADO...

CITY           SKY/WX    TMP DP  RH WIND       PRES   REMARKS
ASPEN          NOT AVBL
BUENA VISTA    FAIR      40  17  38 SW6G24    30.20S
COPPER MTN     NOT AVBL
BERTHOUD PASS  HVY SNOW  14   3  62 MISG      30.12R VSB<1/4
COTTONWOOD PAS FAIR      32  21  64 NW9G18    30.18R WCI  24
GUNNISON       FLURRIES  20  16  84 CALM      30.35
KREMMLING      CLOUDY    37  28  70 W13       30.24R
LEADVILLE      CLOUDY    24  19  81 NE12      30.22R WCI  13
MONARCH PASS   CLOUDY    19  18  93 W43G66    30.34R WCI  -2
SALIDA         FAIR      45  22  40 W22G32    30.27R
SUNLIGHT       LGT SNOW  23  21  93 SW9G22    30.30R WCI  13
WILKERSON PASS FAIR      25  18  74 W20G35    30.17R WCI  11
$$

COZ069>075-091800-
...SAN LUIS VALLEY/SANGRE DE CRISTO MOUNTAINS...

CITY           SKY/WX    TMP DP  RH WIND       PRES   REMARKS
ALAMOSA        FAIR      24   9  52 E3        30.30R
LA VETA PASS   FAIR      27  18  69 NE24G36   30.20R WCI  12
SAGUACHE       FAIR      27  12  54 SE5       30.31S WCI  21
$$

COZ035-036-038>040-091800-
...NORTHERN COLORADO FRONT RANGE...

CITY           SKY/WX    TMP DP  RH WIND       PRES   REMARKS
DENVER INTL AP FAIR      37  23  56 SW8       30.09R
DMNS CITY PARK   N/A     31  16  53 W3G14     30.10S
AURORA         MOSUNNY   44  26  50 SE8       30.10R
FRONT RANGE AP NOT AVBL
ERIE MUNI ARPT FAIR      20  14  76 CALM      30.09S
BOULDER MUN AP FAIR      19  12  73 NE3       30.09R
CENTENNIAL     FAIR      41  24  51 SE6       30.10R
BROOMFIELD     MOSUNNY   27  25  93 S7G15     30.09R WCI  19
FORT COLLINS   FAIR      14   9  79 CALM      30.11S
LONGMONT       FAIR      19   9  64 CALM      30.12S
$$

COZ041-046-047-076>085-087-088-091800-
...PIKES PEAK/PALMER DIVIDE AND SOUTHERN FOOTHILLS...

CITY           SKY/WX    TMP DP  RH WIND       PRES   REMARKS
COLO. SPRINGS  FAIR      38  23  55 N7        30.15R
A. F. ACADEMY  FAIR      36  22  57 CALM      30.13R
SCHRIEVER AFB  NOT AVBL
ELLICOTT       LGT RAIN N/A N/A N/A CALM      30.13R
FALCON         FAIR      45  21  39 W6        30.15R
FORT CARSON    PTSUNNY   35  23  60 NW6       30.13R WCI  30
LIMON          FAIR      19   9  65 CALM      30.15R
MONUMENT HILL  FAIR      43  23  45 S3        30.15R
TRINIDAD       FAIR      44  20  38 W9        30.17S
$$

COZ042>045-048>051-090-091-091800-
...NORTHEAST COLORADO...

CITY           SKY/WX    TMP DP  RH WIND       PRES   REMARKS
GREELEY ARPT   FAIR      16   8  71 NW5       30.15R WCI   9
AKRON          FAIR      16   7  67 W13       30.13S WCI   2
BURLINGTON     FAIR      27  15  61 S18       30.18F WCI  14
WRAY           NOT AVBL
STERLING       FAIR      18   9  68 W5        30.18R WCI  11
HOLYOKE        FAIR      21  12  68 S10       30.21S WCI  10
FORT MORGAN    FAIR      18   8  65 W7        30.15S WCI   9
$$

COZ086-089-092>099-091800-
...SOUTHEAST COLORADO...

CITY           SKY/WX    TMP DP  RH WIND       PRES   REMARKS
PUEBLO         FAIR      24   9  52 W8        30.18F WCI  15
LA JUNTA       FAIR      21   7  54 CALM      30.22S
LAMAR          FAIR      21   8  57 W5        30.25R WCI  15
SPRINGFIELD      N/A     31  20  63 CALM      30.19R
$$




USA.gov is the U.S. government's official web portal to all federal, state and local government web resources and services.